Voltar ao catálogo

SL-16 DEB

AtivoLEO
NORAD 22436·DEBRIS·🇷🇺 Russia

Lançado Dec 25, 1992 de Baikonur Cosmodrome

Loading…

Próximas Passagens (próximas 24 horas)

TLE

AtualizadoSource: Space-Track

Época: Sep 14, 2026, 03:23 UTC

1 22436U 92093ED  26257.14110986  .00004633  00000-0  53647-3 0  9996
2 22436  71.5041 307.0492 0037580 259.0449 132.0473 14.85520215778700

Acompanhe SL-16 DEB em tempo real com AllMySat

Download on the App Store